User: anonymous   Login
Location: Allison's Woods
(35.8809°N, 80.8140°W)
Time: 21:38:23
(UTC-04:00)
Language:

Iridium 39 - Orbit

View from above orbital plane
View from above orbital plane
View from above satellite
View from above satellite

Ground track
Ground track

The orbit data is extracted from the following two-line orbital elements,

1 25042U 97069D   16152.50813944 -.00000078  00000-0 -35048-4 0  9994
2 25042  86.3983 181.7732 0002435  93.5118 266.6356 14.34220608971609
Epoch (UTC): 31 May 2016 12:11:43
Eccentricity: 0.0002435
inclination: 86.3983°
perigee height: 776 km
apogee height: 779 km
right ascension of ascending node: 181.7732°
argument of perigee: 93.5118°
revolutions per day: 14.34220608
mean anomaly at epoch: 266.6356°
orbit number at epoch: 97160

The dashed part of the orbit path shows where the satellite is in the earth's shadow,  

DLR